Location: *
(43.0167°S, 179.9000°E)
Time: 20:54:01
(UTC+00:00)

Cosmos 1833 Rocket - Pass Details

Date: 12 August 2024
Orbit: 830 x 840 km, 71.0° (Epoch: 19 September)

Event Time Altitude Azimuth Distance (km) Brightness Sun altitude
Exits shadow 17:39:21 21° 273° (W) 1,801 3.8 -14.6°
Maximum altitude 17:39:50 21° 280° (W) 1,788 3.8 -14.5°
Drops below altitude 10° 17:43:57 10° 328° (NNW) 2,445 4.9 -13.8°
Sets 17:46:55 0° 343° (NNW) 3,371 5.7 -13.3°
